,,,PA_Meas_PMT16A,,PR_Meas_QMR101_102,,RH_Meas_QMH101,,SR_Meas_QMS101,,TA_Meas_QMH101,,GenWind,,GenWind,
date,time,status,PA,status,PR,status,RH,status,SR,status,TA,status,DirAvg,status,SpdAvg,
2012-05-11, 00:00:04,VALID,1000.82,VALID,0,VALID,94.1266,VALID,0,VALID,23.7012,VALID,30,VALID,0.737891,
2012-05-11, 00:01:04,VALID,1000.79,VALID,0,VALID,94.264,VALID,0,VALID,23.7012,VALID,66,VALID,0.891797,
2012-05-11, 00:02:04,VALID,1000.8,VALID,0,VALID,94.386,VALID,0,VALID,23.7402,VALID,52,VALID,0.859375,
2012-05-11, 00:03:04,VALID,1000.78,VALID,0,VALID,94.4928,VALID,0,VALID,23.7793,VALID,52,VALID,0.652344,
2012-05-11, 00:04:04,VALID,1000.76,VALID,0,VALID,94.5615,VALID,0,VALID,23.7579,VALID,52,VALID,0.941016,
2012-05-11, 00:05:04,VALID,1000.71,VALID,0,VALID,94.5462,VALID,0,VALID,23.7988,VALID,52,VALID,0.926953,
2012-05-11, 00:06:04,VALID,1000.72,VALID,0,VALID,94.5462,VALID,0,VALID,23.8183,VALID,52,VALID,0.848437,
2012-05-11, 00:07:04,VALID,1000.67,VALID,0,VALID,94.531,VALID,0,VALID,23.8183,VALID,52,VALID,0.982813,
2012-05-11, 00:08:04,VALID,1000.65,VALID,0,VALID,94.531,VALID,0,VALID,23.8183,VALID,52,VALID,0.844141,
2012-05-11, 00:09:04,VALID,1000.64,VALID,0,VALID,94.5005,VALID,0,VALID,23.8183,VALID,52,VALID,0.760547,
2012-05-11, 00:10:04,VALID,1000.64,VALID,0,VALID,94.5005,VALID,0,VALID,23.8183,VALID,52,VALID,0.728125,
2012-05-11, 00:11:04,VALID,1000.61,VALID,0,VALID,94.4776,VALID,0.104696,VALID,23.8183,VALID,52,VALID,0.719141,
2012-05-11, 00:12:04,VALID,1000.59,VALID,0,VALID,94.47,VALID,0,VALID,23.7988,VALID,52,VALID,0.522656,
2012-05-11, 00:13:04,VALID,1000.59,VALID,0,VALID,94.4165,VALID,0,VALID,23.7988,VALID,52,VALID,0.161328,
2012-05-11, 00:14:04,VALID,1000.54,VALID,0,VALID,94.3326,VALID,0,VALID,23.7793,VALID,52,VALID,0,
2012-05-11, 00:15:04,VALID,1000.54,VALID,0,VALID,94.2868,VALID,0,VALID,23.7189,VALID,52,VALID,0.51875,
2012-05-11, 00:16:04,VALID,1000.5,VALID,0,VALID,94.264,VALID,0,VALID,23.7207,VALID,52,VALID,0.517969,
2012-05-11, 00:17:04,VALID,1000.49,VALID,0,VALID,94.264,VALID,0,VALID,23.6994,VALID,52,VALID,0.496484,
2012-05-11, 00:18:04,VALID,1000.5,VALID,0,VALID,94.2716,VALID,0,VALID,23.6799,VALID,52,VALID,0.543359,
2012-05-11, 00:19:04,VALID,1000.49,VALID,0,VALID,94.2868,VALID,0,VALID,23.6817,VALID,52,VALID,0.6125,
2012-05-11, 00:20:04,VALID,1000.46,VALID,0,VALID,94.3021,VALID,0,VALID,23.6622,VALID,52,VALID,0.661328,
2012-05-11, 00:21:04,VALID,1000.44,VALID,0,VALID,94.325,VALID,0,VALID,23.6427,VALID,52,VALID,0.727734,
2012-05-11, 00:22:04,VALID,1000.49,VALID,0,VALID,94.3555,VALID,0,VALID,23.6427,VALID,52,VALID,0.692578,
2012-05-11, 00:23:04,VALID,1000.49,VALID,0,VALID,94.4013,VALID,0,VALID,23.6427,VALID,52,VALID,0.619141,
2012-05-11, 00:24:04,VALID,1000.46,VALID,0,VALID,94.4318,VALID,0,VALID,23.6214,VALID,52,VALID,0.515234,
2012-05-11, 00:25:04,VALID,1000.47,VALID,0,VALID,94.4547,VALID,0,VALID,23.6232,VALID,52,VALID,0.463281,
2012-05-11, 00:26:04,VALID,1000.44,VALID,0,VALID,94.4623,VALID,0,VALID,23.6427,VALID,52,VALID,0.326953,
2012-05-11, 00:27:04,VALID,1000.4,VALID,0,VALID,94.47,VALID,0,VALID,23.6427,VALID,52,VALID,0.332422,
2012-05-11, 00:28:04,VALID,1000.44,VALID,0,VALID,94.4776,VALID,0,VALID,23.6427,VALID,52,VALID,0.512109,
2012-05-11, 00:29:04,VALID,1000.43,VALID,0,VALID,94.4852,VALID,0,VALID,23.6427,VALID,52,VALID,0.536719,
2012-05-11, 00:30:04,VALID,1000.45,VALID,0,VALID,94.4852,VALID,0,VALID,23.6232,VALID,52,VALID,0.341797,
2012-05-11, 00:31:04,VALID,1000.42,VALID,0,VALID,94.47,VALID,0,VALID,23.6232,VALID,52,VALID,0.0308594,
2012-05-11, 00:32:04,VALID,1000.41,VALID,0,VALID,94.47,VALID,0,VALID,23.6232,VALID,52,VALID,0,
2012-05-11, 00:33:04,VALID,1000.39,VALID,0,VALID,94.4394,VALID,0,VALID,23.6427,VALID,52,VALID,0,
2012-05-11, 00:34:04,VALID,1000.36,VALID,0,VALID,94.4242,VALID,0,VALID,23.6232,VALID,52,VALID,0,
2012-05-11, 00:35:04,VALID,1000.34,VALID,0,VALID,94.47,VALID,0,VALID,23.6427,VALID,52,VALID,0.449219,
2012-05-11, 00:36:04,VALID,1000.28,VALID,0,VALID,94.4928,VALID,0,VALID,23.6427,VALID,52,VALID,0.582031,
2012-05-11, 00:37:04,VALID,1000.27,VALID,0,VALID,94.5005,VALID,0,VALID,23.6427,VALID,52,VALID,0.661719,
2012-05-11, 00:38:04,VALID,1000.24,VALID,0,VALID,94.5386,VALID,0,VALID,23.6604,VALID,52,VALID,0.553906,
2012-05-11, 00:39:04,VALID,1000.24,VALID,0,VALID,94.5462,VALID,0,VALID,23.7012,VALID,59,VALID,0.601563,
2012-05-11, 00:40:04,VALID,1000.27,VALID,0,VALID,94.592,VALID,0,VALID,23.7012,VALID,73,VALID,0.588281,
2012-05-11, 00:41:04,VALID,1000.26,VALID,0,VALID,94.5768,VALID,0,VALID,23.6799,VALID,73,VALID,0.69375,
2012-05-11, 00:42:04,VALID,1000.3,VALID,0,VALID,94.592,VALID,0,VALID,23.6994,VALID,73,VALID,0.530469,
2012-05-11, 00:43:04,VALID,1000.28,VALID,0,VALID,94.592,VALID,0,VALID,23.7207,VALID,73,VALID,0.632031,
2012-05-11, 00:44:04,VALID,1000.3,VALID,0,VALID,94.5997,VALID,0,VALID,23.7402,VALID,73,VALID,0.480469,
2012-05-11, 00:45:04,VALID,1000.3,VALID,0,VALID,94.592,VALID,0,VALID,23.7189,VALID,73,VALID,0.354688,
2012-05-11, 00:46:04,VALID,1000.33,VALID,0,VALID,94.5844,VALID,0,VALID,23.6994,VALID,73,VALID,0.0195313,
2012-05-11, 00:47:04,VALID,1000.35,VALID,0,VALID,94.5539,VALID,0,VALID,23.7402,VALID,73,VALID,0,
2012-05-11, 00:48:04,VALID,1000.29,VALID,0,VALID,94.5234,VALID,0,VALID,23.7189,VALID,73,VALID,0,
2012-05-11, 00:49:04,VALID,1000.3,VALID,0,VALID,94.4928,VALID,0,VALID,23.7402,VALID,73,VALID,0,
2012-05-11, 00:50:04,VALID,1000.31,VALID,0,VALID,94.4852,VALID,0,VALID,23.7402,VALID,73,VALID,0,
2012-05-11, 00:51:04,VALID,1000.32,VALID,0,VALID,94.4623,VALID,0,VALID,23.7189,VALID,73,VALID,0,
2012-05-11, 00:52:04,VALID,1000.34,VALID,0,VALID,94.4623,VALID,0,VALID,23.6994,VALID,73,VALID,0,
2012-05-11, 00:53:04,VALID,1000.31,VALID,0,VALID,94.4547,VALID,0,VALID,23.6994,VALID,73,VALID,0,
2012-05-11, 00:54:04,VALID,1000.33,VALID,0,VALID,94.4318,VALID,0,VALID,23.7207,VALID,73,VALID,0,
2012-05-11, 00:55:04,VALID,1000.36,VALID,0,VALID,94.4471,VALID,0,VALID,23.7207,VALID,73,VALID,0,
2012-05-11, 00:56:04,VALID,1000.38,VALID,0,VALID,94.4623,VALID,0,VALID,23.7402,VALID,73,VALID,0,
2012-05-11, 00:57:04,VALID,1000.36,VALID,0,VALID,94.4852,VALID,0,VALID,23.7402,VALID,73,VALID,0.360547,
2012-05-11, 00:58:04,VALID,1000.32,VALID,0,VALID,94.5081,VALID,0,VALID,23.7402,VALID,147,VALID,0.798047,
2012-05-11, 00:59:04,VALID,1000.34,VALID,0,VALID,94.531,VALID,0,VALID,23.7384,VALID,147,VALID,0.739453,
2012-05-11, 01:00:04,VALID,1000.31,VALID,0,VALID,94.5234,VALID,0,VALID,23.7793,VALID,147,VALID,0.574219,
2012-05-11, 01:01:04,VALID,1000.27,VALID,0,VALID,94.5081,VALID,0,VALID,23.7775,VALID,147,VALID,0.351563,
2012-05-11, 01:02:04,VALID,1000.3,VALID,0,VALID,94.4852,VALID,0,VALID,23.8183,VALID,147,VALID,0.20625,
2012-05-11, 01:03:04,VALID,1000.26,VALID,0,VALID,94.4394,VALID,0,VALID,23.8378,VALID,147,VALID,0.561719,
2012-05-11, 01:04:04,VALID,1000.26,VALID,0,VALID,94.3784,VALID,0,VALID,23.8165,VALID,147,VALID,0.497266,
2012-05-11, 01:05:04,VALID,1000.26,VALID,0,VALID,94.3097,VALID,0,VALID,23.8378,VALID,147,VALID,0.536719,
2012-05-11, 01:06:04,VALID,1000.23,VALID,0,VALID,94.2563,VALID,0,VALID,23.836,VALID,147,VALID,0.527734,
2012-05-11, 01:07:04,VALID,1000.24,VALID,0,VALID,94.2182,VALID,0,VALID,23.8555,VALID,147,VALID,0.469141,
2012-05-11, 01:08:04,VALID,1000.24,VALID,0,VALID,94.18,VALID,0,VALID,23.8555,VALID,147,VALID,0.468359,
2012-05-11, 01:09:04,VALID,1000.17,VALID,0,VALID,94.1419,VALID,0,VALID,23.8768,VALID,147,VALID,0.498828,
2012-05-11, 01:10:04,VALID,1000.15,VALID,0,VALID,94.1266,VALID,0,VALID,23.8573,VALID,147,VALID,0.580469,
2012-05-11, 01:11:04,VALID,1000.14,VALID,0,VALID,94.1037,VALID,0,VALID,23.8768,VALID,147,VALID,0.6125,
2012-05-11, 01:12:04,VALID,1000.13,VALID,0,VALID,94.1037,VALID,0,VALID,23.8555,VALID,147,VALID,0.639063,
2012-05-11, 01:13:04,VALID,1000.11,VALID,0,VALID,94.1114,VALID,0,VALID,23.8768,VALID,147,VALID,0.7125,
2012-05-11, 01:14:04,VALID,1000.12,VALID,0,VALID,94.1114,VALID,0,VALID,23.8768,VALID,147,VALID,0.866406,
2012-05-11, 01:15:04,VALID,1000.12,VALID,0,VALID,94.119,VALID,0,VALID,23.8963,VALID,147,VALID,1.02109,
2012-05-11, 01:16:04,VALID,1000.06,VALID,0,VALID,94.119,VALID,0,VALID,23.8963,VALID,147,VALID,0.882813,
2012-05-11, 01:17:04,VALID,1000.05,VALID,0,VALID,94.1343,VALID,0,VALID,23.8963,VALID,147,VALID,0.985937,
2012-05-11, 01:18:04,VALID,1000.03,VALID,0,VALID,94.1571,VALID,0,VALID,23.8945,VALID,147,VALID,1.05039,
2012-05-11, 01:19:04,VALID,1000.05,VALID,0,VALID,94.1724,VALID,0,VALID,23.8945,VALID,147,VALID,1.01328,
2012-05-11, 01:20:04,VALID,1000.05,VALID,0,VALID,94.1953,VALID,0,VALID,23.9354,VALID,150,VALID,1.01523,
2012-05-11, 01:21:04,VALID,1000.04,VALID,0,VALID,94.1953,VALID,0,VALID,23.9354,VALID,165,VALID,0.884766,
2012-05-11, 01:22:04,VALID,1000.06,VALID,0,VALID,94.1877,VALID,0,VALID,23.9336,VALID,165,VALID,0.721094,
2012-05-11, 01:23:04,VALID,1000.04,VALID,0,VALID,94.1953,VALID,0,VALID,23.9549,VALID,165,VALID,0.698047,
2012-05-11, 01:24:04,VALID,1000.07,VALID,0,VALID,94.1724,VALID,0,VALID,23.9336,VALID,165,VALID,0.219531,
2012-05-11, 01:25:04,VALID,1000.04,VALID,0,VALID,94.1648,VALID,0,VALID,23.9336,VALID,165,VALID,0.394141,
2012-05-11, 01:26:04,VALID,1000.01,VALID,0,VALID,94.1343,VALID,0,VALID,23.9336,VALID,165,VALID,0.34375,
2012-05-11, 01:27:04,VALID,1000.04,VALID,0,VALID,94.1037,VALID,0,VALID,23.9549,VALID,165,VALID,0.364453,
2012-05-11, 01:28:04,VALID,1000.03,VALID,0,VALID,94.0885,VALID,0,VALID,23.9549,VALID,165,VALID,0.38125,
2012-05-11, 01:29:04,VALID,1000.05,VALID,0,VALID,94.0885,VALID,0,VALID,23.9549,VALID,165,VALID,0.444141,
2012-05-11, 01:30:04,VALID,1000.04,VALID,0,VALID,94.0732,VALID,0,VALID,23.9336,VALID,165,VALID,0.28125,
2012-05-11, 01:31:04,VALID,1000.06,VALID,0,VALID,94.0808,VALID,0,VALID,23.9354,VALID,165,VALID,0,
2012-05-11, 01:32:04,VALID,1000.08,VALID,0,VALID,94.058,VALID,0,VALID,23.9159,VALID,165,VALID,0,
2012-05-11, 01:33:04,VALID,1000.03,VALID,0,VALID,94.0274,VALID,0,VALID,23.9159,VALID,165,VALID,0,
2012-05-11, 01:34:04,VALID,1000.07,VALID,0,VALID,94.0045,VALID,0,VALID,23.9159,VALID,165,VALID,0,
2012-05-11, 01:35:04,VALID,1000,VALID,0,VALID,93.9817,VALID,0,VALID,23.8963,VALID,165,VALID,0,
2012-05-11, 01:36:04,VALID,1000,VALID,0,VALID,93.9511,VALID,0,VALID,23.8768,VALID,165,VALID,0,
2012-05-11, 01:37:04,VALID,1000,VALID,0,VALID,93.9359,VALID,0,VALID,23.8555,VALID,165,VALID,0,
2012-05-11, 01:38:04,VALID,999.95,VALID,0,VALID,93.9283,VALID,0,VALID,23.8768,VALID,165,VALID,0,
2012-05-11, 01:39:04,VALID,999.9,VALID,0,VALID,93.9664,VALID,0,VALID,23.836,VALID,165,VALID,0,
2012-05-11, 01:40:04,VALID,999.845,VALID,0,VALID,93.9969,VALID,0,VALID,23.836,VALID,165,VALID,0.505859,
2012-05-11, 01:41:04,VALID,999.849,VALID,0,VALID,94.0503,VALID,0,VALID,23.8555,VALID,129,VALID,0.934375,
2012-05-11, 01:42:04,VALID,999.828,VALID,0,VALID,94.0198,VALID,0,VALID,23.8573,VALID,118,VALID,0.978906,
2012-05-11, 01:43:04,VALID,999.815,VALID,0,VALID,93.9359,VALID,0,VALID,23.8165,VALID,112,VALID,0.676953,
2012-05-11, 01:44:04,VALID,999.824,VALID,0,VALID,93.8825,VALID,0,VALID,23.8378,VALID,124,VALID,0.698828,
2012-05-11, 01:45:04,VALID,999.816,VALID,0,VALID,93.8214,VALID,0,VALID,23.797,VALID,124,VALID,0.622266,
2012-05-11, 01:46:04,VALID,999.822,VALID,0,VALID,93.8138,VALID,0,VALID,23.797,VALID,110,VALID,0.554297,
2012-05-11, 01:47:04,VALID,999.784,VALID,0,VALID,93.8596,VALID,0,VALID,23.7775,VALID,110,VALID,0.919922,
2012-05-11, 01:48:04,VALID,999.763,VALID,0,VALID,93.8825,VALID,0,VALID,23.8183,VALID,110,VALID,0.628516,
2012-05-11, 01:49:04,VALID,999.803,VALID,0,VALID,93.8825,VALID,0,VALID,23.7775,VALID,110,VALID,0.729688,
2012-05-11, 01:50:04,VALID,999.809,VALID,0,VALID,93.8825,VALID,0,VALID,23.7988,VALID,110,VALID,0.610937,
2012-05-11, 01:51:04,VALID,999.775,VALID,0,VALID,93.8748,VALID,0,VALID,23.7793,VALID,111,VALID,0.344141,
2012-05-11, 01:52:04,VALID,999.796,VALID,0,VALID,93.9054,VALID,0,VALID,23.7775,VALID,110,VALID,0.517578,
2012-05-11, 01:53:04,VALID,999.789,VALID,0,VALID,93.8977,VALID,0,VALID,23.7988,VALID,110,VALID,0.146875,
2012-05-11, 01:54:04,VALID,999.809,VALID,0,VALID,93.8672,VALID,0,VALID,23.7793,VALID,110,VALID,0.124219,
2012-05-11, 01:55:04,VALID,999.802,VALID,0,VALID,93.852,VALID,0,VALID,23.7793,VALID,110,VALID,0.113281,
2012-05-11, 01:56:04,VALID,999.789,VALID,0,VALID,93.913,VALID,0,VALID,23.7597,VALID,110,VALID,0,
2012-05-11, 01:57:04,VALID,999.801,VALID,0,VALID,93.9359,VALID,0,VALID,23.7793,VALID,110,VALID,0.339453,
2012-05-11, 01:58:04,VALID,999.763,VALID,0,VALID,93.9359,VALID,0,VALID,23.7384,VALID,110,VALID,0.494531,
2012-05-11, 01:59:04,VALID,999.763,VALID,0,VALID,93.9511,VALID,0,VALID,23.7597,VALID,110,VALID,0.586719,
2012-05-11, 02:00:04,VALID,999.774,VALID,0,VALID,93.9511,VALID,0,VALID,23.7384,VALID,110,VALID,0.329688,
2012-05-11, 02:01:04,VALID,999.758,VALID,0,VALID,93.9206,VALID,0,VALID,23.7579,VALID,110,VALID,0.330078,
2012-05-11, 02:02:04,VALID,999.708,VALID,0,VALID,93.9283,VALID,0,VALID,23.7793,VALID,110,VALID,0.293359,
2012-05-11, 02:03:04,VALID,999.689,VALID,0,VALID,93.9435,VALID,0,VALID,23.7579,VALID,110,VALID,0.185547,
2012-05-11, 02:04:04,VALID,999.657,VALID,0,VALID,93.9511,VALID,0,VALID,23.7384,VALID,110,VALID,0,
2012-05-11, 02:05:04,VALID,999.677,VALID,0,VALID,93.9969,VALID,0,VALID,23.7597,VALID,110,VALID,0,
2012-05-11, 02:06:04,VALID,999.68,VALID,0,VALID,94.0198,VALID,0,VALID,23.7793,VALID,110,VALID,0,
2012-05-11, 02:07:04,VALID,999.676,VALID,0,VALID,94.0274,VALID,0,VALID,23.7793,VALID,110,VALID,0,
2012-05-11, 02:08:04,VALID,999.671,VALID,0,VALID,94.0198,VALID,0,VALID,23.7597,VALID,110,VALID,0,
2012-05-11, 02:09:04,VALID,999.656,VALID,0,VALID,93.9969,VALID,0,VALID,23.7384,VALID,115,VALID,0,
2012-05-11, 02:10:04,VALID,999.65,VALID,0,VALID,94.0503,VALID,0,VALID,23.7597,VALID,133,VALID,0,
2012-05-11, 02:11:04,VALID,999.621,VALID,0,VALID,94.0808,VALID,0,VALID,23.7793,VALID,133,VALID,0.723047,
2012-05-11, 02:12:04,VALID,999.602,VALID,0,VALID,94.1114,VALID,0,VALID,23.7988,VALID,133,VALID,0.614453,
2012-05-11, 02:13:04,VALID,999.519,VALID,0,VALID,94.0656,VALID,0,VALID,23.797,VALID,133,VALID,0.807813,
2012-05-11, 02:14:04,VALID,999.536,VALID,0,VALID,94.0274,VALID,0,VALID,23.797,VALID,133,VALID,0.577734,
2012-05-11, 02:15:04,VALID,999.531,VALID,0,VALID,93.9511,VALID,0,VALID,23.797,VALID,133,VALID,0.324609,
2012-05-11, 02:16:04,VALID,999.525,VALID,0,VALID,93.9206,VALID,0,VALID,23.797,VALID,133,VALID,0.00195313,
2012-05-11, 02:17:04,VALID,999.497,VALID,0,VALID,93.8825,VALID,0,VALID,23.797,VALID,133,VALID,0,
2012-05-11, 02:18:04,VALID,999.513,VALID,0,VALID,93.8443,VALID,0,VALID,23.797,VALID,133,VALID,0,
2012-05-11, 02:19:04,VALID,999.478,VALID,0,VALID,93.852,VALID,0,VALID,23.8183,VALID,133,VALID,0.116016,
2012-05-11, 02:20:04,VALID,999.468,VALID,0,VALID,93.8825,VALID,0,VALID,23.8183,VALID,133,VALID,0.346094,
2012-05-11, 02:21:04,VALID,999.488,VALID,0,VALID,93.8901,VALID,0,VALID,23.797,VALID,133,VALID,0.271875,
2012-05-11, 02:22:04,VALID,999.466,VALID,0,VALID,93.9054,VALID,0,VALID,23.797,VALID,133,VALID,0.221094,
2012-05-11, 02:23:04,VALID,999.457,VALID,0,VALID,93.9283,VALID,0,VALID,23.7988,VALID,133,VALID,0.583984,
2012-05-11, 02:24:04,VALID,999.433,VALID,0,VALID,93.913,VALID,0,VALID,23.8183,VALID,133,VALID,0.432031,
2012-05-11, 02:25:04,VALID,999.447,VALID,0,VALID,93.9054,VALID,0,VALID,23.7775,VALID,133,VALID,0.688281,
2012-05-11, 02:26:04,VALID,999.426,VALID,0,VALID,93.9664,VALID,0,VALID,23.7775,VALID,133,VALID,0.667578,
2012-05-11, 02:27:04,VALID,999.433,VALID,0,VALID,93.9893,VALID,0,VALID,23.7775,VALID,133,VALID,0.530469,
2012-05-11, 02:28:04,VALID,999.411,VALID,0,VALID,94.0274,VALID,0,VALID,23.7988,VALID,133,VALID,0.200781,
2012-05-11, 02:29:04,VALID,999.395,VALID,0,VALID,94.0351,VALID,0,VALID,23.8183,VALID,133,VALID,0,
2012-05-11, 02:30:04,VALID,999.367,VALID,0,VALID,94.058,VALID,0,VALID,23.797,VALID,133,VALID,0.308594,
2012-05-11, 02:31:04,VALID,999.369,VALID,0,VALID,94.0885,VALID,0,VALID,23.797,VALID,133,VALID,0.0347656,
2012-05-11, 02:32:04,VALID,999.35,VALID,0,VALID,94.1037,VALID,0,VALID,23.8183,VALID,133,VALID,0,
2012-05-11, 02:33:04,VALID,999.354,VALID,0,VALID,94.0885,VALID,0,VALID,23.8183,VALID,53,VALID,0.745313,
2012-05-11, 02:34:04,VALID,999.339,VALID,0,VALID,94.1037,VALID,0,VALID,23.8183,VALID,53,VALID,0.733203,
2012-05-11, 02:35:04,VALID,999.327,VALID,0,VALID,94.0961,VALID,0,VALID,23.7775,VALID,53,VALID,0.524609,
2012-05-11, 02:36:04,VALID,999.322,VALID,0,VALID,94.1037,VALID,0,VALID,23.7988,VALID,53,VALID,0.411328,
2012-05-11, 02:37:04,VALID,999.348,VALID,0,VALID,94.1343,VALID,0,VALID,23.7793,VALID,53,VALID,0.580469,
2012-05-11, 02:38:04,VALID,999.354,VALID,0,VALID,94.1571,VALID,0,VALID,23.7579,VALID,53,VALID,0.635938,
2012-05-11, 02:39:04,VALID,999.322,VALID,0,VALID,94.2029,VALID,0,VALID,23.7793,VALID,53,VALID,0.770703,
2012-05-11, 02:40:04,VALID,999.375,VALID,0,VALID,94.2334,VALID,0,VALID,23.7384,VALID,53,VALID,0.502344,
2012-05-11, 02:41:04,VALID,999.393,VALID,0,VALID,94.2334,VALID,0,VALID,23.7384,VALID,53,VALID,0.523047,
2012-05-11, 02:42:04,VALID,999.453,VALID,0,VALID,94.2945,VALID,0,VALID,23.7402,VALID,10,VALID,0.819922,
2012-05-11, 02:43:04,VALID,999.477,VALID,0,VALID,94.325,VALID,0,VALID,23.7597,VALID,8,VALID,0.753516,
2012-05-11, 02:44:04,VALID,999.462,VALID,0,VALID,94.3555,VALID,0,VALID,23.7597,VALID,5,VALID,0.632031,
2012-05-11, 02:45:04,VALID,999.452,VALID,0,VALID,94.386,VALID,0,VALID,23.7597,VALID,5,VALID,0.316797,
2012-05-11, 02:46:04,VALID,999.434,VALID,0,VALID,94.4089,VALID,0,VALID,23.7597,VALID,5,VALID,0.256641,
2012-05-11, 02:47:04,VALID,999.416,VALID,0,VALID,94.4318,VALID,0,VALID,23.7579,VALID,5,VALID,0.457422,
2012-05-11, 02:48:04,VALID,999.36,VALID,0,VALID,94.4471,VALID,0,VALID,23.7793,VALID,5,VALID,0.362891,
2012-05-11, 02:49:04,VALID,999.299,VALID,0,VALID,94.4547,VALID,0,VALID,23.7579,VALID,5,VALID,0.186719,
2012-05-11, 02:50:04,VALID,999.281,VALID,0,VALID,94.4471,VALID,0,VALID,23.7793,VALID,5,VALID,0,
2012-05-11, 02:51:04,VALID,999.272,VALID,0,VALID,94.4471,VALID,0,VALID,23.7793,VALID,5,VALID,0,
2012-05-11, 02:52:04,VALID,999.259,VALID,0,VALID,94.4852,VALID,0,VALID,23.7793,VALID,5,VALID,0,
2012-05-11, 02:53:04,VALID,999.223,VALID,0,VALID,94.4776,VALID,0,VALID,23.7579,VALID,5,VALID,0,
2012-05-11, 02:54:04,VALID,999.225,VALID,0,VALID,94.4928,VALID,0,VALID,23.7793,VALID,5,VALID,0,
2012-05-11, 02:55:04,VALID,999.197,VALID,0,VALID,94.4776,VALID,0,VALID,23.7793,VALID,5,VALID,0,
2012-05-11, 02:56:04,VALID,999.171,VALID,0,VALID,94.4776,VALID,0,VALID,23.7579,VALID,5,VALID,0,
2012-05-11, 02:57:04,VALID,999.153,VALID,0,VALID,94.4928,VALID,0,VALID,23.7793,VALID,5,VALID,0.603906,
2012-05-11, 02:58:04,VALID,999.119,VALID,0,VALID,94.4852,VALID,0,VALID,23.7384,VALID,18,VALID,0.842969,
2012-05-11, 02:59:04,VALID,999.138,VALID,0,VALID,94.4547,VALID,0,VALID,23.7189,VALID,20,VALID,0.727734,
2012-05-11, 03:00:04,VALID,999.156,VALID,0,VALID,94.4471,VALID,0,VALID,23.6994,VALID,22,VALID,0.699219,
2012-05-11, 03:01:04,VALID,999.183,VALID,0,VALID,94.4318,VALID,0,VALID,23.6799,VALID,22,VALID,0.607422,
2012-05-11, 03:02:04,VALID,999.2,VALID,0,VALID,94.4318,VALID,0,VALID,23.6799,VALID,31,VALID,0.601172,
2012-05-11, 03:03:04,VALID,999.223,VALID,0,VALID,94.47,VALID,0,VALID,23.6817,VALID,39,VALID,0.706641,
2012-05-11, 03:04:04,VALID,999.213,VALID,0,VALID,94.47,VALID,0,VALID,23.6409,VALID,46,VALID,0.771094,
2012-05-11, 03:05:04,VALID,999.202,VALID,0,VALID,94.5386,VALID,0,VALID,23.6622,VALID,57,VALID,1.16523,
2012-05-11, 03:06:04,VALID,999.216,VALID,0,VALID,94.5615,VALID,0,VALID,23.6409,VALID,59,VALID,1.25508,
2012-05-11, 03:07:04,VALID,999.219,VALID,0,VALID,94.5768,VALID,0,VALID,23.6214,VALID,60,VALID,1.04453,
2012-05-11, 03:08:04,VALID,999.223,VALID,0,VALID,94.5691,VALID,0,VALID,23.6214,VALID,60,VALID,0.954297,
2012-05-11, 03:09:04,VALID,999.254,VALID,0,VALID,94.5691,VALID,0,VALID,23.6427,VALID,60,VALID,0.794922,
2012-05-11, 03:10:04,VALID,999.263,VALID,0,VALID,94.5539,VALID,0,VALID,23.6232,VALID,60,VALID,0.764063,
2012-05-11, 03:11:04,VALID,999.247,VALID,0,VALID,94.5005,VALID,0.104696,VALID,23.6019,VALID,66,VALID,0.890625,
2012-05-11, 03:12:04,VALID,999.259,VALID,0,VALID,94.5157,VALID,0,VALID,23.6232,VALID,66,VALID,0.779688,
2012-05-11, 03:13:04,VALID,999.283,VALID,0,VALID,94.5081,VALID,0,VALID,23.6019,VALID,66,VALID,0.740234,
2012-05-11, 03:14:04,VALID,999.304,VALID,0,VALID,94.5081,VALID,0,VALID,23.5823,VALID,66,VALID,0.371484,
2012-05-11, 03:15:04,VALID,999.328,VALID,0,VALID,94.5005,VALID,0,VALID,23.5841,VALID,66,VALID,0.191406,
2012-05-11, 03:16:04,VALID,999.368,VALID,0,VALID,94.4852,VALID,0,VALID,23.6036,VALID,66,VALID,0.457812,
2012-05-11, 03:17:04,VALID,999.37,VALID,0,VALID,94.4928,VALID,0,VALID,23.5628,VALID,66,VALID,0.300391,
2012-05-11, 03:18:04,VALID,999.371,VALID,0,VALID,94.5081,VALID,0,VALID,23.5433,VALID,66,VALID,0.412891,
2012-05-11, 03:19:04,VALID,999.387,VALID,0,VALID,94.5386,VALID,0,VALID,23.5628,VALID,66,VALID,0.374609,
2012-05-11, 03:20:04,VALID,999.389,VALID,0,VALID,94.5234,VALID,0,VALID,23.5841,VALID,66,VALID,0.355859,
2012-05-11, 03:21:04,VALID,999.41,VALID,0,VALID,94.5081,VALID,0,VALID,23.5628,VALID,66,VALID,0.480469,
2012-05-11, 03:22:04,VALID,999.374,VALID,0,VALID,94.5081,VALID,0,VALID,23.5433,VALID,66,VALID,0.279297,
2012-05-11, 03:23:04,VALID,999.36,VALID,0,VALID,94.4776,VALID,0,VALID,23.5451,VALID,66,VALID,0,
2012-05-11, 03:24:04,VALID,999.341,VALID,0,VALID,94.4852,VALID,0,VALID,23.5433,VALID,66,VALID,0,
2012-05-11, 03:25:04,VALID,999.333,VALID,0,VALID,94.4852,VALID,0,VALID,23.5433,VALID,66,VALID,0,
2012-05-11, 03:26:04,VALID,999.318,VALID,0,VALID,94.5081,VALID,0,VALID,23.5646,VALID,66,VALID,0,
2012-05-11, 03:27:04,VALID,999.331,VALID,0,VALID,94.5157,VALID,0,VALID,23.5433,VALID,66,VALID,0,
2012-05-11, 03:28:04,VALID,999.343,VALID,0,VALID,94.5462,VALID,0,VALID,23.5628,VALID,64,VALID,0.594922,
2012-05-11, 03:29:04,VALID,999.334,VALID,0,VALID,94.5615,VALID,0,VALID,23.5628,VALID,60,VALID,0.726172,
2012-05-11, 03:30:04,VALID,999.337,VALID,0,VALID,94.5997,VALID,0,VALID,23.5433,VALID,54,VALID,1.10234,
2012-05-11, 03:31:04,VALID,999.331,VALID,0,VALID,94.6378,VALID,0,VALID,23.5841,VALID,38,VALID,1.25117,
2012-05-11, 03:32:04,VALID,999.355,VALID,0,VALID,94.6302,VALID,0,VALID,23.5433,VALID,8,VALID,1.54062,
2012-05-11, 03:33:04,VALID,999.354,VALID,0,VALID,94.676,VALID,0,VALID,23.5433,VALID,5,VALID,1.15273,
2012-05-11, 03:34:04,VALID,999.35,VALID,0,VALID,94.6836,VALID,0,VALID,23.5451,VALID,14,VALID,1.17422,
2012-05-11, 03:35:04,VALID,999.328,VALID,0,VALID,94.6988,VALID,0,VALID,23.5451,VALID,14,VALID,1.14922,
2012-05-11, 03:36:04,VALID,999.325,VALID,0,VALID,94.7294,VALID,0,VALID,23.5433,VALID,32,VALID,1.21797,
2012-05-11, 03:37:04,VALID,999.277,VALID,0,VALID,94.7217,VALID,0,VALID,23.5433,VALID,37,VALID,1.12266,
2012-05-11, 03:38:04,VALID,999.273,VALID,0,VALID,94.6988,VALID,0,VALID,23.5238,VALID,37,VALID,0.791016,
2012-05-11, 03:39:04,VALID,999.297,VALID,0,VALID,94.6836,VALID,0,VALID,23.5238,VALID,36,VALID,0.569531,
2012-05-11, 03:40:04,VALID,999.315,VALID,0,VALID,94.6988,VALID,0,VALID,23.5043,VALID,17,VALID,0.589453,
2012-05-11, 03:41:04,VALID,999.356,VALID,0,VALID,94.7141,VALID,0,VALID,23.5238,VALID,347,VALID,0.390625,
2012-05-11, 03:42:04,VALID,999.347,VALID,0,VALID,94.7065,VALID,0,VALID,23.5043,VALID,347,VALID,0.0332031,
2012-05-11, 03:43:04,VALID,999.339,VALID,0,VALID,94.7141,VALID,0,VALID,23.5451,VALID,347,VALID,0,
2012-05-11, 03:44:04,VALID,999.352,VALID,0,VALID,94.7523,VALID,0,VALID,23.5238,VALID,347,VALID,0.0347656,
2012-05-11, 03:45:04,VALID,999.356,VALID,0,VALID,94.737,VALID,0,VALID,23.5238,VALID,347,VALID,0.496875,
2012-05-11, 03:46:04,VALID,999.338,VALID,0,VALID,94.7675,VALID,0,VALID,23.5433,VALID,347,VALID,0.601563,
2012-05-11, 03:47:04,VALID,999.329,VALID,0,VALID,94.7523,VALID,0,VALID,23.5433,VALID,347,VALID,0.593359,
2012-05-11, 03:48:04,VALID,999.336,VALID,0,VALID,94.7217,VALID,0,VALID,23.5433,VALID,347,VALID,0.144531,